Location: �terpigny
(49.8910°N, 2.9249°E)
Time: 04:22:07
(UTC+00:00)

Cosmos 614 Rocket - Pass Details

Date: 31 May 2022
Orbit: 732 x 764 km, 74.1° (Epoch: 06 July)

Event Time Altitude Azimuth Distance (km) Brightness Sun altitude
Rises 23:17:05 0° 342° (NNW) 3,219 8.8 -17.8°
Reaches altitude 10° 23:19:57 10° 357° (N) 2,296 7.8 -17.9°
Maximum altitude 23:24:03 23° 49° (NE) 1,586 6.0 -17.9°
Drops below altitude 10° 23:28:09 10° 101° (E) 2,297 6.3 -18.0°
Enters shadow 23:29:55 - 111° (ESE) 2,852 6.7 -18.0°
